DW8935 Weather Reports


time (UTC)temp
C
wind
direction
speed
KPH
gust
KPH
rain 1hr
cm
rain 24hr
cm
rain mn
cm
humidity
%
barometer
mb
20260503001559 20 360 11.3 37.0 0.00 0.00 0.00 72 1010.9
20260503000057 21 333 14.5 33.8 0.00 0.00 0.00 70 1011.2
20260502234554 21 355 8.0 19.3 0.00 0.00 0.00 68 1010.9
20260502231554 21 12 9.7 33.8 0.00 0.00 0.00 68 1010.8
20260502230052 21 337 11.3 29.0 0.00 0.00 0.00 69 1010.6
20260502224555 20 355 8.0 19.3 0.00 0.00 0.00 70 1010.7
20260502221551 20 360 8.0 22.5 0.00 0.00 0.00 72 1011.3
20260502220049 20 355 6.4 19.3 0.00 0.00 0.00 73 1011.6
20260502214605 20 327 3.2 20.9 0.00 0.00 0.00 73 1011.5
20260502211600 20 355 1.6 17.7 0.00 0.00 0.00 71 1011.5
20260502210053 20 305 8.0 25.7 0.00 0.00 0.00 70 1011.9
20260502204550 20 360 8.0 22.5 0.00 0.00 0.00 69 1012.1
20260502201550 21 304 8.0 22.5 0.00 0.00 0.00 65 1012.0
20260502200046 21 336 3.2 19.3 0.00 0.00 0.00 64 1012.1
20260502194548 21 346 4.8 24.1 0.00 0.00 0.00 62 1012.1
20260502191545 21 315 9.7 24.1 0.00 0.00 0.00 59 1011.9
20260502190045 21 324 9.7 25.7 0.00 0.00 0.00 59 1011.6
20260502184544 21 360 6.4 20.9 0.00 0.00 0.00 59 1011.4
20260502181538 20 327 4.8 19.3 0.00 0.00 0.00 65 1011.7
20260502161528 17 16 0.0 0.0 0.00 0.00 0.00 73 1012.6
20260502151525 18 16 0.0 0.0 0.00 0.00 0.00 68 1012.9
20260502121505 21 13 0.0 0.0 0.00 0.00 0.00 55 1013.9
20260502114502 21 55 0.0 0.0 0.00 0.00 0.00 55 1014.2
20260502111501 21 33 0.0 4.8 0.00 0.00 0.00 55 1014.4
20260502110100 21 57 1.6 9.7 0.00 0.00 0.00 55 1014.4
20260502104600 21 39 3.2 9.7 0.00 0.00 0.00 55 1014.4
20260502101618 22 56 1.6 8.0 0.00 0.00 0.00 54 1014.5
20260502100111 22 20 0.0 6.4 0.00 0.00 0.00 54 1014.5
20260502070107 23 28 3.2 9.7 0.00 0.00 0.00 50 1014.4
20260502064620 23 5 4.8 11.3 0.00 0.00 0.00 49 1014.5
20260502061552 24 5 3.2 8.0 0.00 0.00 0.00 49 1014.5
20260502060051 24 26 0.0 6.4 0.00 0.00 0.00 50 1014.7
20260502054550 23 38 3.2 9.7 0.00 0.00 0.00 50 1014.7
20260502051548 23 14 3.2 11.3 0.00 0.00 0.00 50 1014.8
20260502050048 23 5 3.2 11.3 0.00 0.00 0.00 50 1014.9
20260502044545 23 22 0.0 12.9 0.00 0.00 0.00 50 1015.1
20260502041555 23 360 3.2 11.3 0.00 0.00 0.00 50 1015.4
20260502040042 23 11 3.2 8.0 0.00 0.00 0.00 50 1015.6
20260502034539 23 5 3.2 11.3 0.00 0.00 0.00 49 1015.8
20260502031536 23 28 6.4 14.5 0.00 0.00 0.00 50 1016.4
20260502030035 23 9 4.8 14.5 0.00 0.00 0.00 50 1016.6
20260502024533 23 355 6.4 19.3 0.00 0.00 0.00 50 1016.8
20260502021526 22 355 11.3 29.0 0.00 0.00 0.00 52 1017.3
20260502020024 22 23 6.4 19.3 0.00 0.00 0.00 52 1017.6
20260502014524 22 355 8.0 17.7 0.00 0.00 0.00 52 1017.8
20260502011518 22 12 9.7 19.3 0.00 0.00 0.00 53 1018.3
20260502010025 21 5 4.8 25.7 0.00 0.00 0.00 53 1018.7
20260502004524 21 355 6.4 19.3 0.00 0.00 0.00 54 1018.9